Flag for U.S.A. Weather past 2 weeks in Pembroke Pines, Florida, U.S.A.

Now
70 °F

Overcast.


Feels Like: 70 °F
Forecast: 66 / 78 °F
Wind: 12 mph from North

Location: North Perry Airport

Current Time: Feb 27, 2015 at 10:28:00 AM

Latest Report: Feb 27, 2015 at 9:53 AM


Visibility: 10 mi

Pressure: 30.14 "Hg

Humidity: 81%

Dew point: 64 °F

Location of Pembroke PinesLocation

Historic Weather in Pembroke Pines — Graph

°F

Pembroke Pines temperature yesterday

Maximum temperature yesterday: 86 °F (at 1:53 PM)
Minimum temperature yesterday: 72 °F (at 10:53 PM)
Average temperature yesterday: 78 °F

Past Weeks' High & Low Weather Summary

 TemperatureHumidityPressure
High86 °F (Feb 26, 1:53 PM)97% (Feb 23, 5:00 AM)30.37 "Hg (Feb 23, 5:00 AM)
Low40 °F (Feb 20, 4:53 AM)21% (Feb 19, 2:53 PM)29.82 "Hg (Feb 26, 3:03 AM)
Average67 °F66%30.11 "Hg
* Reported Feb 12 9:53 AM — Feb 27 9:04 AM, Pembroke Pines, Weather by CustomWeather, © 2015

Note: Actual official high and low records may vary slightly from our data, if they occured in-between our weather recording intervals... More about our weather records

Advertising

Pembroke Pines weather history for previous 24 hours

 ConditionsComfort  
Time TempWeatherWind HumidityBarometerVisibility
9:04 AM
Fri, Feb 27
69 °FMore clouds than sun.8 mph84%30.13 "Hg10 mi
8:53 AM68 °FMostly cloudy.6 mph87%30.12 "Hg10 mi
7:53 AM68 °FOvercast.8 mph84%30.09 "Hg5 mi
6:53 AM66 °FLow clouds.6 mph87%30.06 "Hg10 mi
5:53 AM67 °FOvercast.8 mph81%30.04 "Hg10 mi
4:53 AM68 °FOvercast.6 mph82%30.02 "Hg10 mi
3:53 AM69 °FMostly cloudy.8 mph81%30.01 "Hg10 mi
2:53 AM69 °FPartly cloudy.7 mph84%30.00 "Hg10 mi
1:53 AM70 °FOvercast.7 mph84%30.01 "Hg10 mi
12:53 AM71 °FOvercast.6 mph84%30.01 "Hg10 mi
11:53 PM
Thu, Feb 26
72 °FMostly cloudy.6 mph81%30.01 "Hg10 mi
10:53 PM72 °FMostly cloudy.7 mph81%30.01 "Hg10 mi
9:53 PM77 °FPartly cloudy.6 mph77%30.00 "Hg10 mi
8:53 PM77 °FPartly cloudy.6 mph79%29.98 "Hg10 mi
7:53 PM78 °FPassing clouds.8 mph76%29.96 "Hg10 mi
6:53 PM79 °FPassing clouds.9 mph74%29.94 "Hg10 mi
5:53 PM80 °FPartly sunny.15 mph71%29.93 "Hg10 mi
4:53 PM83 °FPartly sunny.18 mph65%29.90 "Hg10 mi
3:53 PM82 °FScattered clouds.16 mph65%29.88 "Hg10 mi
2:53 PM85 °FPassing clouds.21 mph53%29.87 "Hg10 mi
1:53 PM86 °FPassing clouds.25 mph51%29.87 "Hg10 mi
12:53 PM85 °FSunny.20 mph53%29.88 "Hg10 mi
11:53 AM85 °FSunny.20 mph53%29.88 "Hg10 mi
10:53 AM82 °FSunny.17 mph60%29.90 "Hg10 mi
Weather by CustomWeather, © 2015

See weather overviewHow to use our weather pages